Lewiston, WA

6:39 AM PST on February 22, 2018 (GMT -0800)
Lewiston-Nez Perce County

Weather History for KLWS - August, 2014

Change the Weather History Date:

Tuesday, August 5, 2014

  Actual Average Record
Temperature  
Mean Temperature 84 °F 76 °F  
Max Temperature 100 °F 92 °F 108 °F (1998)
Min Temperature 68 °F 61 °F 49 °F (1948)
Degree Days  
Heating Degree Days 0 0  
Month to date heating degree days 0 0  
Since 1 June heating degree days 41 77  
Since 1 July heating degree days 0 7  
Cooling Degree Days 19 11  
Month to date cooling degree days 101 57  
Year to date cooling degree days 702 487  
Since 1 June cooling degree days 674 455  
Growing Degree Days 34 (Base 50)    
Moisture  
Dew Point 43 °F    
Average Humidity 31    
Maximum Humidity 47    
Minimum Humidity 14    
Precipitation  
Precipitation 0.00 in 0.02 in 0.10 in (1984)
Month to date precipitation T 0.09  
Year to date precipitation 6.50 7.93  
Snow  
Snow 0.00 in 0.00 in 0.00 in (1998)
Month to date snowfall 0.0 0.0  
Since 1 June snowfall 0.0 0.0  
Since 1 July snowfall 0.0 0.0  
Snow Depth 0.00 in    
Sea Level Pressure  
Sea Level Pressure 29.84 in    
Wind  
Wind Speed 5 mph (West)    
Max Wind Speed 14 mph    
Max Gust Speed 17 mph    
Visibility 10 miles    
Events      
T = Trace of Precipitation, MM = Missing Value Source: NWS Daily Summary

Daily Weather History Graph

Daily Weather History Graph

Search for Another Location

Airport or City:

Trip Planner

Search our weather history database for the weather conditions in past years. The results will help you decide how hot, cold, wet, or windy it might be!

Date:

Astronomy

Aug. 05, 2014 Rise Set
Actual Time 5:34 AM PDT 8:12 PM PDT
Civil Twilight 5:00 AM PDT 8:47 PM PDT
Nautical Twilight 4:16 AM PDT 9:30 PM PDT
Astronomical Twilight 3:26 AM PDT 10:19 PM PDT
Moon 3:34 PM PDT (8/5) 12:25 AM PDT (8/5)
Length of Visible Light 15h 46m
Length of Day
14h 38m
Waxing Gibbous, 69% of the Moon is Illuminated
Aug 5
Waxing Gibbous
Aug 10
Full
Aug 17
Last Quarter
Aug 25
New
Sep 2
First Quarter

Hourly Weather History & Observations

Time (PDT) Temp. Dew Point Humidity Pressure Visibility Wind Dir Wind Speed Gust Speed Precip Events Conditions
12:56 AM 78.1 °F 37.0 °F 23% 29.80 in 10.0 mi SE 3.5 mph - N/A   Clear
1:56 AM 77.0 °F 39.0 °F 25% 29.80 in 10.0 mi South 4.6 mph - N/A   Clear
2:56 AM 73.0 °F 41.0 °F 31% 29.81 in 10.0 mi Calm Calm - N/A   Clear
3:56 AM 72.0 °F 39.0 °F 30% 29.83 in 10.0 mi Calm Calm - N/A   Clear
4:56 AM 70.0 °F 39.9 °F 33% 29.84 in 10.0 mi East 3.5 mph - N/A   Clear
5:56 AM 70.0 °F 48.0 °F 46% 29.86 in 10.0 mi East 4.6 mph - N/A   Clear
6:56 AM 71.1 °F 48.9 °F 45% 29.88 in 10.0 mi Calm Calm - N/A   Clear
7:56 AM 72.0 °F 48.9 °F 44% 29.90 in 10.0 mi North 4.6 mph - N/A   Clear
8:56 AM 75.9 °F 48.0 °F 37% 29.91 in 10.0 mi Calm Calm - N/A   Clear
9:56 AM 82.0 °F 48.0 °F 30% 29.91 in 10.0 mi NNE 3.5 mph - N/A   Clear
10:56 AM 86.0 °F 48.0 °F 27% 29.90 in 10.0 mi Calm Calm - N/A   Clear
11:56 AM 90.0 °F 48.0 °F 24% 29.88 in 10.0 mi Variable 3.5 mph - N/A   Clear
12:56 PM 95.0 °F 46.0 °F 19% 29.86 in 10.0 mi Variable 4.6 mph - N/A   Clear
1:56 PM 97.0 °F 45.0 °F 17% 29.85 in 10.0 mi NW 8.1 mph - N/A   Clear
2:56 PM 99.0 °F 42.1 °F 14% 29.83 in 10.0 mi WSW 6.9 mph - N/A   Clear
3:56 PM 99.0 °F 41.0 °F 14% 29.81 in 10.0 mi WNW 10.4 mph - N/A   Clear
4:56 PM 99.0 °F 41.0 °F 14% 29.80 in 10.0 mi WNW 9.2 mph - N/A   Clear
5:56 PM 97.0 °F 41.0 °F 14% 29.80 in 10.0 mi NW 6.9 mph - N/A   Clear
6:56 PM 97.0 °F 39.0 °F 13% 29.80 in 10.0 mi WNW 8.1 mph - N/A   Clear
7:56 PM 91.9 °F 39.0 °F 16% 29.81 in 10.0 mi WNW 4.6 mph - N/A   Clear
8:56 PM 89.1 °F 42.1 °F 19% 29.82 in 10.0 mi Calm Calm - N/A   Clear
9:56 PM 86.0 °F 41.0 °F 20% 29.83 in 10.0 mi WSW 9.2 mph - N/A   Clear
10:56 PM 84.9 °F 41.0 °F 21% 29.82 in 10.0 mi WSW 10.4 mph - N/A   Clear
11:56 PM 81.0 °F 41.0 °F 24% 29.83 in 10.0 mi SSW 9.2 mph - N/A   Clear